[Date Prev][Date Next][Thread Prev][Thread Next] - [Date Index][Thread Index][Author Index]

2 Line ISS Keps 10-19



ISS
1 25544U 98067A   03292.09467593  .00015017  00000-0  17052-3 0  6640
2 25544  51.6295 115.7387 0006568  53.3077  88.0982 15.62553968280366


----
Via the sarex mailing list at AMSAT.ORG courtesy of AMSAT-NA.
To unsubscribe, send "unsubscribe sarex" to Majordomo@amsat.org



AMSAT Top AMSAT Home